Flag for Netherlands Weather past 2 weeks in Zaandam, Netherlands

Now
82 °F

Passing clouds.


Feels Like: 84 °F
Forecast: 65 / 78 °F
Wind: 9 mph from Southwest

Location: Amsterdam Schiphol Airport

Current Time: Jul 2, 2015 at 11:03:39 AM

Latest Report: Jul 2, 2015 at 10:25 AM


Visibility: N/A

Pressure: 30.01 "Hg

Humidity: 55%

Dew point: 64 °F

Location of ZaandamLocation

Historic Weather in Zaandam — Graph

°F

Zaandam temperature yesterday

Maximum temperature yesterday: 91 °F (at 3:55 PM)
Minimum temperature yesterday: 63 °F (at 4:55 AM)
Average temperature yesterday: 78 °F

Past Weeks' High & Low Weather Summary

 TemperatureHumidityPressure
High91 °F (Jul 1, 3:55 PM)100% (Jun 17, 10:55 PM)30.21 "Hg (Jun 17, 10:55 PM)
Low50 °F (Jun 20, 2:55 AM)23% (Jun 26, 4:55 PM)29.68 "Hg (Jun 22, 7:25 PM)
Average63 °F72%30.05 "Hg
* Reported Jun 17 9:25 AM — Jul 2 9:55 AM, Zaandam, Weather by CustomWeather, © 2015

Note: Actual official high and low records may vary slightly from our data, if they occured in-between our weather recording intervals... More about our weather records

Advertising

Zaandam weather history for previous 24 hours

 ConditionsComfort  
Time TempWeatherWind HumidityBarometerVisibility
9:55 AM
Thu, Jul 2
81 °FPassing clouds.8 mph54%30.01 "HgN/A
9:25 AM81 °FPassing clouds.8 mph54%30.01 "HgN/A
8:55 AM81 °FSunny.9 mph54%30.01 "Hg10 mi
8:25 AM79 °FPassing clouds.10 mph58%30.01 "HgN/A
7:55 AM77 °FPassing clouds.10 mph61%30.01 "HgN/A
7:25 AM77 °FSunny.8 mph57%29.98 "Hg10 mi
6:55 AM75 °FPassing clouds.8 mph61%29.98 "HgN/A
6:25 AM75 °FSunny.8 mph61%29.98 "Hg10 mi
5:55 AM73 °FClear.8 mph65%29.98 "Hg10 mi
5:25 AM73 °FPassing clouds.6 mph65%29.98 "HgN/A
4:55 AM73 °FClear.8 mph65%29.98 "Hg10 mi
4:25 AM75 °FClear.10 mph57%29.98 "Hg10 mi
3:55 AM75 °FClear.12 mph57%29.98 "Hg10 mi
3:25 AM75 °FClear.12 mph57%29.98 "Hg10 mi
2:55 AM77 °FClear.13 mph54%29.98 "Hg10 mi
2:25 AM77 °FClear.12 mph54%29.98 "Hg10 mi
1:55 AM77 °FClear.12 mph57%29.98 "Hg10 mi
1:25 AM77 °FClear.10 mph57%29.98 "Hg10 mi
12:55 AM77 °FPassing clouds.12 mph57%29.98 "HgN/A
12:25 AM79 °FClear.12 mph54%29.98 "Hg10 mi
11:55 PM
Wed, Jul 1
79 °FClear.12 mph54%29.98 "Hg10 mi
10:55 PM81 °FSunny.12 mph51%29.98 "Hg10 mi
10:25 PM82 °FSunny.10 mph48%29.98 "Hg10 mi
9:55 PM82 °FPassing clouds.9 mph48%29.98 "HgN/A
9:25 PM82 °FSunny.8 mph48%29.95 "Hg10 mi
8:55 PM86 °FSunny.10 mph40%29.95 "Hg10 mi
8:25 PM88 °FSunny.12 mph38%29.95 "Hg10 mi
7:55 PM90 °FPassing clouds.12 mph33%29.95 "HgN/A
7:25 PM90 °FPassing clouds.10 mph33%29.95 "HgN/A
6:55 PM90 °FPassing clouds.13 mph36%29.95 "HgN/A
6:25 PM91 °FPassing clouds.14 mph32%29.95 "HgN/A
5:55 PM91 °FSunny.13 mph32%29.98 "Hg10 mi
5:25 PM91 °FPassing clouds.15 mph30%29.98 "HgN/A
4:55 PM91 °FPassing clouds.16 mph32%29.98 "HgN/A
4:25 PM91 °FPassing clouds.15 mph30%29.98 "HgN/A
3:55 PM91 °FPassing clouds.15 mph30%29.98 "HgN/A
3:25 PM90 °FPassing clouds.13 mph31%30.01 "HgN/A
2:55 PM90 °FPassing clouds.10 mph33%30.01 "HgN/A
2:25 PM90 °FPassing clouds.15 mph33%30.01 "HgN/A
1:55 PM88 °FPassing clouds.15 mph29%30.01 "HgN/A
1:25 PM88 °FPassing clouds.14 mph33%30.01 "HgN/A
12:55 PM86 °FPassing clouds.16 mph35%30.01 "HgN/A
12:25 PM86 °FPassing clouds.9 mph40%30.01 "HgN/A
11:55 AM84 °FPassing clouds.10 mph43%30.04 "HgN/A
11:25 AM82 °FPassing clouds.9 mph42%30.04 "HgN/A
Weather by CustomWeather, © 2015

See weather overviewHow to use our weather pages